Location: Newark
(30.0333°N, 31.2167°E)
Time: 22:07:51
(UTC+00:00)

Tiros 1 - Pass Details

Date: 31 January 2020
Orbit: 631 x 664 km, 48.4° (Epoch: 19 February)

Event Time Altitude Azimuth Distance (km) Brightness Sun altitude
Rises 13:39:31 0° 321° (NW) 2,959 10.6 20.5°
Reaches altitude 10° 13:42:14 10° 336° (NNW) 2,054 9.7 20.0°
Maximum altitude 13:46:05 24° 30° (NNE) 1,348 8.4 19.3°
Drops below altitude 10° 13:49:57 10° 85° (E) 2,065 9.3 18.6°
Sets 13:52:42 0° 99° (E) 2,979 10.1 18.1°
